Regional Weather Roundup
Issued by NWS Sioux Falls, SD

Home | Current Version | Previous Version | Graphics & Text | Print | Product List | Glossary On
Versions: 1 2 3 4 5 6 7 8 9 10 11 12 13 14 15 16 17 18 19 20 21 22 23 24 25 26 27 28 29 30 31 32 33 34 35 36 37 38 39 40 41 42 43 44 45 46 47 48 49 50
000
ASUS43 KFSD 060102
RWRFSD

WEATHER ROUNDUP FOR SE SOUTH DAKOTA/SW MINNESOTA/NW IOWA
NATIONAL WEATHER SERVICE SIOUX FALLS SD
700 PM CST FRI FEB 05 2016

NOTE: "FAIR" INDICATES FEW OR NO CLOUDS BELOW 12,000 FEET WITH NO
SIGNIFICANT WEATHER AND OR OBSTRUCTIONS TO VISIBILITY.


SDZ038>040-050-052>070-060200-
SOUTHEAST SOUTH DAKOTA

CITY           SKY/WX    TMP DP  RH WIND       PRES   REMARKS
BROOKINGS      CLEAR     21  20  96 W7        30.17R WCI  12
CHAMBERLAIN    NOT AVBL
HURON          CLEAR     32  27  81 W9        30.18F WCI  24
MADISON        CLOUDY    25  25 100 NW10      30.18R WCI  15
MITCHELL       PTCLDY    32  29  88 CALM      30.22R
SIOUX FALLS    CLOUDY    29  26  89 NW6       30.20R WCI  23
WINNER         FAIR      31  25  78 W7        30.22R WCI  24
YANKTON        CLOUDY    34  28  80 NW14      30.22R WCI  24
$$

MNZ071-072-080-081-089-090-097-098-060200-
SOUTHWEST MINNESOTA

CITY           SKY/WX    TMP DP  RH WIND       PRES   REMARKS
FAIRMONT       CLOUDY    25  19  80 S15       30.18S WCI  12
JACKSON        CLOUDY    28  23  80 SW9       30.19R FOG     WCI  20
LUVERNE        CLOUDY    30  27  86 SW5       30.19S WCI  25
MARSHALL       CLOUDY    28  24  85 W7        30.18R WCI  21
MONTEVIDEO     CLOUDY    27  21  80 CALM      30.19R
PIPESTONE        N/A     28  21  74 W6        30.16R WCI  22
REDWOOD FALLS  CLOUDY    26  23  88 SW7       30.18S WCI  18
TRACY          CLOUDY    28  25  88 W5        30.18R WCI  23
WINDOM         CLOUDY    27  25  93 SW12      30.18R FOG     WCI  16
WORTHINGTON    CLOUDY    27  21  80 SW13      30.18S WCI  16
$$

IAZ001>003-012>014-020>022-031-032-NEZ013-014-SDZ071-060200-
NORTHWEST IOWA

CITY           SKY/WX    TMP DP  RH WIND       PRES   REMARKS
ESTHERVILLE    CLOUDY    25  23  92 S16       30.19S WCI  12
SIOUX CITY     CLOUDY    30  25  81 SE3       30.21S
SPENCER        CLOUDY    27  23  85 S9        30.20S FOG     WCI  18
$$

ABBREVIATIONS USED IN REMARKS
   TC - TEMPERATURE IN CELSIUS
  WCI - WIND CHILL INDEX
   HX - HEAT INDEX
  VSB - VISIBILITY




USA.gov is the U.S. government's official web portal to all federal, state and local government web resources and services.